User: anonymous   Login
Location: Unspecified
(0.0000°N, 0.0000°E)
Time: 11:58:04
(UTC+00:00)
Language:

USA 136 - Orbit

View from above orbital plane
View from above orbital plane
View from above satellite
View from above satellite

Ground track
Ground track

The orbit data is extracted from the following two-line orbital elements,

1 25034U 97068A   17279.65350023 0.00000000  00000-0  00000-0 0    07
2 25034  63.3790 212.4323 6221226 285.2266  17.2816  2.00600700    03
Epoch (UTC): 06 October 2017 15:41:02
Eccentricity: 0.6221226
inclination: 63.3790°
perigee height: 3657 km
apogee height: 36700 km
right ascension of ascending node: 212.4323°
argument of perigee: 285.2266°
revolutions per day: 2.00600700
mean anomaly at epoch: 17.2816°
orbit number at epoch: 0

The dashed part of the orbit path shows where the satellite is in the earth's shadow,  

DLR